Regional Weather Roundup
Issued by NWS Portland, ME

Home | Current Version | Previous Version | Text Only | Print | Product List | Glossary On
Versions: 1 2 3 4 5 6 7 8 9 10 11 12 13 14 15 16 17 18 19 20 21 22 23 24 25 26 27 28 29 30 31 32 33 34 35 36 37 38 39 40 41 42 43 44 45 46 47 48 49 50
000
ASUS41 KGYX 311710
RWRGYX
WEATHER ROUNDUP FOR MAINE AND NEW HAMPSHIRE
NATIONAL WEATHER SERVICE GRAY ME
100 PM EDT THU JUL 31 2014

MEZ002-005-006-010-012-015-018-020-021-024-026-027-029-311800-
MAINE

CITY           SKY/WX    TMP DP  RH WIND       PRES   REMARKS
PORTLAND       MOSUNNY   73  61  65 SE9       30.10S
SANFORD        MOSUNNY   77  55  47 S8        30.09S
BAR HARBOR     SUNNY     70  63  78 SE3       30.12S
WISCASSET      MOSUNNY   73  60  63 S7        30.12S
ROCKLAND       PTSUNNY   63  63 100 E6        30.12S
FRYEBURG       PTSUNNY   73  58  59 SW7       30.08R
LEWISTONAUBURN SUNNY     75  61  60 S10       30.08F
AUGUSTA        MOSUNNY   75  59  57 VRB7      30.09F
WATERVILLE     MOSUNNY   75  61  60 SW9       30.05S
BANGOR         MOSUNNY   75  58  55 S13       30.10F
GREENVILLE       N/A     69  57  65 S8        30.08F
MILLINOCKET    PTSUNNY   75  59  57 VRB3      30.09F
HOULTON        MOSUNNY   75  56  51 S9        30.07F
PRESQUE ISLE   MOSUNNY   73  55  53 SE12      30.06F
FRENCHVILLE    PTSUNNY   70  57  63 VRB3      30.05F
CARIBOU        PTSUNNY   74  60  61 S10       30.05F
$$

NHZ002-005-008-009-011-012-014-311800-
NEW HAMPSHIRE

CITY           SKY/WX    TMP DP  RH WIND       PRES   REMARKS
PORTSMOUTH     PTSUNNY   77  63  61 SE12      30.08S
ROCHESTER      MOSUNNY   77  59  53 S6        30.08S
NASHUA         PTSUNNY   80  58  46 CALM      30.09S
MANCHESTER     PTSUNNY   79  55  43 SW12G17   30.07S
CONCORD        PTSUNNY   74  57  55 SW10      30.09R
LACONIA          N/A     73  57  56 SW9       30.07S
PLYMOUTH       CLOUDY    67  60  78 CALM      30.08S
BERLIN         LGT RAIN  67  60  78 CALM      30.08S
WHITEFIELD     CLOUDY    67  60  78 CALM      30.07F
JAFFREY        CLOUDY    71  57  61 S12G18    30.12R
LEBANON        CLOUDY    69  59  70 S6        30.06F
MT WASHINGTON  FOG       45  45 100 S23G29      N/A  VSB 1/16
$$

VTZ005-007-008-311800-
VERMONT

CITY           SKY/WX    TMP DP  RH WIND       PRES   REMARKS
ST JOHNSBURY     N/A     65  57  75 MISG      30.05S
MONTPELIER     CLOUDY    68  57  68 S15       30.09S
BURLINGTON     TSTM      62  57  83 SW18G36   30.04R
$$

MAZ007-012-024-CTZ003-RIZ002-NYZ038-NYZ072-311800-
SOUTHERN NEW ENGLAND AND NY

CITY           SKY/WX    TMP DP  RH WIND       PRES   REMARKS
BOSTON         PTSUNNY   79  58  48 SW8G17    30.08F
WORCESTER      MOSUNNY   75  56  51 SW12      30.12S
NANTUCKET      SUNNY     72  65  78 S9        30.15S
PROVIDENCE     PTSUNNY   77  60  55 SE15      30.11S
HARTFORD       PTSUNNY   80  57  45 SW13      30.07F
ALBANY         PTSUNNY   75  60  59 S15       30.04F
NEW YORK CITY  MOSUNNY   80  57  45 SW12G17   30.09S
$$

ANZ081-ANZ082-ANZ150-NHZ014-MEZ023>029-311800-
COASTAL MARINE OBSERVATIONS

STATION/POSITION TIME  TEMP    WIND        PRES    WAVE
                       AIR SEA DIR/SP/G            HT/PER
                 (UTC) (F)     (DEG/KT/KT) (MB)    (FT/S)
MOUNT DESERT ROC 1600   61                 1020.3R
MATINICUS ROCK   1700           CALM  /  3 1019.7F
PORTLAND WX BUOY 1700   65 66  160/  8/  8 1019.2F   3/ 9
WELLS            1700   66 59  180/  9/ 11 1018.4F
ISLE OF SHOALS   1700   65     160/ 18/ 19 1018.3F
JEFFREYS LEDGE   1600      65                N/A     3/ 8
CASHES LEDGE BUO 1700   68 67  200/ 10/ 12 1019.5R   3/ 9
$$

.............KEY..............
   WCI - WIND CHILL
   TC  - TEMPERATURE IN CELSIUS
   VSB - VISIBILITY IN MILES
   HX  - HEAT INDEX
   FAIR- INDICATES FEW OR NO CLOUDS BELOW 12,000 FT, WITH NO
         SIGNIFICANT WEATHER AND/OR OBSTRUCTIONS TO VISIBILITY.





USA.gov is the U.S. government's official web portal to all federal, state and local government web resources and services.